Location: Habighorst
(52.7089°N, 10.2278°E)
Time: 07:10:32
(UTC+00:00)

COSMO-SKYMED 1 - Pass Details

Date: 13 January 2026
Orbit: 577 x 579 km, 97.9° (Epoch: 18 February)

Event Time Altitude Azimuth Distance (km) Brightness Sun altitude
Rises 05:35:29 0° 196° (SSW) 2,791 5.9 -15.8°
Reaches altitude 10° 05:37:56 10° 210° (SSW) 1,897 4.9 -15.4°
Maximum altitude 05:41:21 25° 267° (W) 1,194 3.5 -14.9°
Enters shadow 05:41:30 25° 270° (W) 1,196 3.4 -14.9°
